Tracking 28790 objects as of 19-Apr-2024
HD Live streaming from Space Station
objects crossing your sky now

COSMOS 2382 (GLONASS)

Track COSMOS 2382 (GLONASS) now!
COSMOS 2382 (GLONASS) is classified as:


NORAD ID: 26987
Int'l Code: 2001-053A
Perigee: 19,124.4 km
Apogee: 19,149.1 km
Inclination: 63.6 °
Period: 675.7 minutes
Semi major axis: 25507 km
RCS: 3.1623 m2 (large)
Launch date: December 1, 2001
Source: Commonwealth of Independent States (former USSR) (CIS)
Launch site: TYURATAM MISSILE AND SPACE COMPLEX (TTMTR)

Russia's version of the GPS system, functions the same; there has been cooperation between the two; much scaled-back constellation
Your satellite tracking list
Your tracking list is empty




NASA's NSSDC Master Catalog

Two Line Element Set (TLE):
1 26987U 01053A   24110.23507889  .00000033  00000-0  00000+0 0  9996
2 26987  63.5778  85.5367 0004836 216.5596 207.6278  2.13105179174192
Source of the keplerian elements: AFSPC